Location: Chillicothe
(39.7950°N, 93.5520°W)
Time: 07:09:53
(UTC-06:00)

BEESAT - Pass Details

Date: 17 November 2019
Orbit: 700 x 709 km, 98.6° (Epoch: 05 December)

Event Time Altitude Azimuth Distance (km) Brightness Sun altitude
Rises 06:07:48 0° 211° (SSW) 3,077 ? -10.4°
Reaches altitude 10° 06:11:04 10° 235° (SW) 2,163 ? -9.8°
Maximum altitude 06:13:37 14° 268° (W) 1,879 ? -9.3°
Enters shadow 06:15:59 11° 299° (WNW) 2,126 ? -8.9°
